Regional Weather Roundup
Issued by NWS State College, PA

Home | Current Version | Previous Version | Graphics & Text | Print | Product List | Glossary Off
Versions: 1 2 3 4 5 6 7 8 9 10 11 12 13 14 15 16 17 18 19 20 21 22 23 24 25 26 27 28 29 30 31 32 33 34 35 36 37 38 39 40 41 42 43 44 45 46 47 48 49 50

000
ASUS41 KCTP 221710
RWRCTP

REGIONAL WEATHER ROUNDUP
NATIONAL WEATHER SERVICE STATE COLLEGE PA
100 PM EDT WED OCT 22 2014

Note: "fair" indicates few or no clouds below 12,000 feet with no
significant weather and/or obstructions to visibility.

* = STATION THAT DOES NOT REPORT PRECIPITATION /E.G. RAIN...SNOW...ETC/
    THUNDER OR FOG.

PAZ002>004-007>009-013>016-020>023-029>032-221800-
WESTERN PENNSYLVANIA

CITY           SKY/WX    TMP DP  RH WIND       PRES   REMARKS
ERIE           CLOUDY    48  40  73 NE12      30.24S
MEADVILLE      CLOUDY    45  40  82 N10       30.21S
FRANKLIN*      CLOUDY    45  37  76 N7        30.19F
NEW CASTLE       N/A     47  41  80 N14       30.22S
BEAVER COUNTY  CLOUDY    48  41  76 N8G21     30.19S
BUTLER*        CLOUDY    48  39  71 N8G16     30.19S
PITTSBURGH INT CLOUDY    50  42  74 N14       30.17S
PITTSBURGH     CLOUDY    49  40  71 N13G20    30.14F
INDIANA*       CLOUDY    48  45  87 N13       30.16S
LATROBE        CLOUDY   N/A N/A N/A NE7       30.19R
WASHINGTON CO* CLOUDY    48  43  81 N7G16     30.18F
$$

PAZ004>006-010>012-017>019-024>028-033>037-041-042-045-046-049>053-221800-
CENTRAL PENNSYLVANIA

CITY           SKY/WX    TMP DP  RH WIND       PRES   REMARKS
BRADFORD       FOG       41  40  96 N8        30.14S VSB 1
DUBOIS         CLOUDY    45  41  86 N10       30.12S
CLEARFIELD     CLOUDY    49  42  77 N16G23    30.10F
JOHNSTOWN      CLOUDY    44  41  89 NW10      30.08S
ALTOONA        CLOUDY    49  44  83 N8        30.06F
STATE COLLEGE  CLOUDY    50  45  81 N10       30.06S
WILLIAMSPORT   CLOUDY    53  43  68 N9G16     30.06F
SELINSGROVE    CLOUDY    53  45  74 N16G26    30.03F
FT INDIANTOWN  CLOUDY    54  54  99 N8G18     29.97F
CAPITAL CITY   LGT RAIN  54  49  83 N9        29.98F
HARRISBURG     CLOUDY    53  49  86 N10       29.97F
YORK           LGT RAIN  53  49  86 N14G24    29.96F
$$

PAZ038>040-043-044-047-048-054-055-060>062-067>071-221800-
EASTERN PENNSYLVANIA

CITY           SKY/WX    TMP DP  RH WIND       PRES   REMARKS
SCRANTON       CLOUDY    54  46  74 N10       29.99F
MOUNT POCONO   CLOUDY    50  46  86 N14       29.96F
ALLENTOWN      CLOUDY    56  49  77 N12       29.94F
QUAKERTOWN*    CLOUDY    54  50  87 N10       29.92F
READING        LGT RAIN  56  50  80 N9        29.93F
LANCASTER      LGT RAIN  54  49  83 N13       29.94F
COATESVILLE    LGT RAIN  54  50  87 N12G17    29.92F
POTTSTOWN      CLOUDY    54  50  86 N10       29.92F
BLUE BELL      CLOUDY    54  52  94 N5        29.88F
DOYLESTOWN     CLOUDY    53  51  93 N10G20    29.89F
WILLOW GROVE   NOT AVBL
NORTH PHILA    RAIN      56  50  80 N14       29.89F
PHILADELPHIA   HVY RAIN  55  51  86 N16       29.87F FOG
$$



USA.gov is the U.S. government's official web portal to all federal, state and local government web resources and services.